{"data":{"norad_id":57150,"epoch":"2026-09-20T16:28:21.254304Z","epoch_age_seconds":104805,"freshness":"FRESH","line1":"1 57150U 23090BB  26263.68635711  .00000177  00000+0  15953-4 0  9999","line2":"2 57150  43.0043 249.0914 0001154 296.2642  63.8091 15.27575756180281","mean_motion":15.27575756,"eccentricity":0.0001154,"inclination_deg":43.0043,"raan_deg":249.0914,"arg_perigee_deg":296.2642,"mean_anomaly_deg":63.8091,"bstar":1.5953e-5,"rev_number":18028,"period_min":94.267010611027,"perigee_km":482.27002178985,"apogee_km":483.85358647384,"semimajor_km":6861.1988041318,"source":"CELESTRAK","updated_at":"2026-09-21T09:00:33.582190Z"}}